{"data":{"norad_id":67400,"intl_designator":"2026-004AP","name":"CONNECTA IOT-13","alt_names":[],"object_type":"PAYLOAD","status":"ACTIVE","operator":null,"country":"TURK","launch_date":"2026-01-11","launch_site_code":"AFWTR","launch_vehicle":null,"mission":null,"orbit_class":"UNKNOWN","rcs_meters":null,"size_class":null,"mass_kg":null,"dimensions":null,"purposes":[],"wikipedia_slug":null,"has_3d_model":false,"image_url":null,"decayed_at":null,"tle_current":{"epoch":"2026-09-20T23:12:48.704832Z","epoch_age_seconds":60016,"freshness":"FRESH","line1":"1 67400U 26004AP  26263.96723038  .00004801  00000+0  23464-3 0  9990","line2":"2 67400  97.4632 261.6448 0009146  30.2094 329.9666 15.18680474 38285","mean_motion":15.18680474,"eccentricity":0.0009146,"inclination_deg":97.4632,"raan_deg":261.6448,"arg_perigee_deg":30.2094,"mean_anomaly_deg":329.9666,"bstar":0.00023464,"rev_number":3828,"period_min":94.819155487476,"perigee_km":503.52779533577,"apogee_km":516.12726004983,"semimajor_km":6887.9645276928,"source":"CELESTRAK","updated_at":"2026-09-21T09:00:16.621360Z"}}}